THORAD DELTA 1 DEB, 14475

Orbit data source: Space-Track

THORAD DELTA 1 DEB, 14475 is space debris in SSO originally from a launch on Fri, 15 Nov 1974 UTC launched from the Air Force Western Test Range (AFWTR). Debris objects in space refer to the collection of defunct objects orbiting the Earth. Examples of debris include non-operational satellites, rocket bodies, and fragments generated from explosions, collisions, or faulty payload assembly.

Loading next visibility...
Identifier
14475, 1974-089ER
Orbit
SSO
Country
Flag of USUS
Related business
Manufacturer
Unknown
Mission
Spacecraft
Bus & Motor
Unknown
Mass
Unknown
Launch date (UTC)
1974-11-15 (52 years ago)
Launch vehicle
Unknown
Launch site
Air Force Western Test Range (AFWTR)
Object type
Payload
Rocket body
Debris
Shape & HBR
Unknown shape, 0.1 m
Radar Cross Section
Small (<0.1 m²)

Expand to show TLE details & history
Last TLE update: 8 hours ago

TLE from 8 hours ago
0 THORAD DELTA 1 DEB
1 14475U 74089ER  26144.90501731  .00000431  00000-0  26352-2 0  9990
2 14475 101.0729 298.8046 0128834 230.5807 285.2349 12.60193658979077
Epoch: 2026-05-24T21:43Z
TLE epoch observation values (Epoch: 2026-05-24T21:43:13.495Z)
Latitude
25.13344°
Longitude
-84.26036°
Altitude
1,399.726 km
Speed
7.174 km/s
True Right ascension
08h 16m 11s
True Declination
25° 00' 45"
Sunlit
Object was in daylight at epoch
Visualization orbit readout
Latitude
Unknown
Longitude
Unknown
Altitude
Unknown
Speed
Unknown
Apparent Right ascension
Unknown
Apparent Declination
Unknown
Sunlit
N/A
Visualization observer readout
Local Sidereal Time
14:50:26
Azimuth
Unknown
Elevation
Unknown
Doppler factor
Unknown
Orbital elements
Apogee altitude
1,520.101 km
Perigee altitude
1,319.177 km
Semi-major axis
7,797.776 km
Eccentricity
0.01288
Inclination
101.0729°
RAAN
298.8046°
Arg. of periapsis
230.5807°
True anomaly
283.80455°
Mean anomaly
285.2349°
Eccentric anomaly
284.52031°
Mean motion
3.15201 °/min
Orbital period
114.21 mins
BSTAR
0.0026352
Loading maneuver chart data...
Computing Atmospheric mass density...
Loading historical data...
Loading historical data...
Loading historical data...
Loading historical data...
Loading historical data...
Loading historical data...
Loading historical data...

Documentation

Showing up to 5 results
|